| time (UTC) | temp C | wind direction | speed KPH | gust KPH | rain 1hr cm | rain 24hr cm | rain mn cm | humidity % | barometer mb |
| 20260906203104 | 35 | 9 | 4.8 | 11.3 | 0.00 | 0.00 | 0.00 | 47 | 1011.0 |
| 20260906202552 | 35 | 360 | 3.2 | 11.3 | 0.00 | 0.00 | 0.00 | 48 | 1011.0 |
| 20260906202052 | 35 | 271 | 1.6 | 14.5 | 0.00 | 0.00 | 0.00 | 48 | 1011.1 |
| 20260906201605 | 35 | 0 | 1.6 | 14.5 | 0.00 | 0.00 | 0.00 | 47 | 1011.2 |
| 20260906201052 | 35 | 315 | 3.2 | 11.3 | 0.00 | 0.00 | 0.00 | 49 | 1011.3 |
| 20260906200556 | 35 | 65 | 1.6 | 14.5 | 0.00 | 0.00 | 0.00 | 48 | 1011.3 |
| 20260906195553 | 35 | 5 | 3.2 | 16.1 | 0.00 | 0.00 | 0.00 | 49 | 1011.7 |
| 20260906195054 | 35 | 320 | 6.4 | 16.1 | 0.00 | 0.00 | 0.00 | 49 | 1011.7 |
| 20260906194606 | 35 | 81 | 3.2 | 12.9 | 0.00 | 0.00 | 0.00 | 49 | 1011.7 |
| 20260906194056 | 35 | 271 | 3.2 | 14.5 | 0.00 | 0.00 | 0.00 | 51 | 1011.8 |
| 20260906193553 | 35 | 325 | 3.2 | 14.5 | 0.00 | 0.00 | 0.00 | 50 | 1011.8 |
| 20260906193104 | 35 | 47 | 4.8 | 14.5 | 0.00 | 0.00 | 0.00 | 50 | 1012.0 |
| 20260906192555 | 35 | 0 | 3.2 | 12.9 | 0.00 | 0.00 | 0.00 | 49 | 1011.9 |
| 20260906192052 | 35 | 298 | 1.6 | 9.7 | 0.00 | 0.00 | 0.00 | 51 | 1012.1 |
| 20260906191613 | 34 | 323 | 0.0 | 9.7 | 0.00 | 0.00 | 0.00 | 50 | 1012.1 |
| 20260906191054 | 34 | 0 | 1.6 | 11.3 | 0.00 | 0.00 | 0.00 | 51 | 1012.2 |
| 20260906190556 | 34 | 52 | 3.2 | 11.3 | 0.00 | 0.00 | 0.00 | 51 | 1012.4 |
| 20260906190105 | 34 | 294 | 3.2 | 9.7 | 0.00 | 0.00 | 0.00 | 51 | 1012.5 |
| 20260906185552 | 34 | 11 | 1.6 | 8.0 | 0.00 | 0.05 | 0.00 | 54 | 1012.4 |
| 20260906185054 | 33 | 94 | 1.6 | 8.0 | 0.00 | 0.05 | 0.00 | 55 | 1012.5 |
| 20260906184606 | 33 | 0 | 3.2 | 9.7 | 0.00 | 0.05 | 0.00 | 55 | 1012.6 |
| 20260906184052 | 33 | 309 | 4.8 | 9.7 | 0.00 | 0.05 | 0.00 | 54 | 1012.6 |
| 20260906183553 | 33 | 84 | 3.2 | 16.1 | 0.00 | 0.05 | 0.00 | 56 | 1012.8 |
| 20260906183105 | 33 | 13 | 4.8 | 16.1 | 0.00 | 0.05 | 0.00 | 54 | 1012.8 |
| 20260906182556 | 33 | 13 | 1.6 | 12.9 | 0.00 | 0.05 | 0.00 | 55 | 1012.8 |
| 20260906182055 | 33 | 306 | 3.2 | 11.3 | 0.00 | 0.05 | 0.00 | 56 | 1012.9 |
| 20260906181603 | 33 | 296 | 1.6 | 11.3 | 0.00 | 0.05 | 0.00 | 56 | 1012.9 |
| 20260906181053 | 33 | 302 | 4.8 | 11.3 | 0.00 | 0.05 | 0.00 | 57 | 1013.1 |
| 20260906180552 | 33 | 0 | 0.0 | 6.4 | 0.00 | 0.05 | 0.00 | 57 | 1013.1 |
| 20260906180115 | 33 | 300 | 0.0 | 14.5 | 0.00 | 0.05 | 0.00 | 57 | 1013.3 |
| 20260906175557 | 33 | 0 | 3.2 | 14.5 | 0.00 | 0.05 | 0.00 | 58 | 1013.3 |
| 20260906175052 | 33 | 0 | 3.2 | 8.0 | 0.00 | 0.05 | 0.00 | 58 | 1013.4 |
| 20260906174603 | 33 | 352 | 1.6 | 8.0 | 0.00 | 0.05 | 0.00 | 57 | 1013.5 |
| 20260906174054 | 32 | 5 | 1.6 | 4.8 | 0.00 | 0.05 | 0.00 | 58 | 1013.6 |
| 20260906173552 | 32 | 0 | 0.0 | 6.4 | 0.00 | 0.05 | 0.00 | 59 | 1013.6 |
| 20260906173105 | 32 | 228 | 1.6 | 6.4 | 0.00 | 0.05 | 0.00 | 59 | 1013.6 |
| 20260906172553 | 32 | 360 | 0.0 | 4.8 | 0.00 | 0.05 | 0.00 | 60 | 1013.7 |
| 20260906172055 | 32 | 45 | 0.0 | 9.7 | 0.00 | 0.05 | 0.00 | 59 | 1013.8 |
| 20260906171604 | 32 | 92 | 3.2 | 9.7 | 0.00 | 0.05 | 0.00 | 59 | 1013.9 |
| 20260906171052 | 32 | 0 | 1.6 | 11.3 | 0.00 | 0.05 | 0.00 | 60 | 1014.0 |
| 20260906170553 | 32 | 360 | 3.2 | 11.3 | 0.00 | 0.05 | 0.00 | 59 | 1013.9 |
| 20260906170110 | 32 | 302 | 3.2 | 8.0 | 0.00 | 0.05 | 0.00 | 58 | 1014.0 |
| 20260906165553 | 32 | 296 | 1.6 | 8.0 | 0.00 | 0.05 | 0.00 | 61 | 1014.1 |
| 20260906165056 | 31 | 322 | 1.6 | 8.0 | 0.00 | 0.05 | 0.00 | 61 | 1014.1 |
| 20260906164604 | 31 | 297 | 1.6 | 8.0 | 0.00 | 0.05 | 0.00 | 61 | 1014.2 |
| 20260906164053 | 31 | 53 | 3.2 | 11.3 | 0.00 | 0.05 | 0.00 | 61 | 1014.1 |
| 20260906163554 | 31 | 0 | 1.6 | 11.3 | 0.00 | 0.05 | 0.00 | 62 | 1014.1 |
| 20260906163123 | 31 | 52 | 3.2 | 11.3 | 0.00 | 0.05 | 0.00 | 62 | 1014.2 |
| 20260906162553 | 31 | 124 | 0.0 | 9.7 | 0.00 | 0.05 | 0.00 | 62 | 1014.3 |
| 20260906162052 | 31 | 13 | 1.6 | 8.0 | 0.00 | 0.05 | 0.00 | 62 | 1014.4 |
| 20260906161610 | 31 | 334 | 0.0 | 8.0 | 0.00 | 0.05 | 0.00 | 62 | 1014.5 |
| 20260906161053 | 31 | 330 | 1.6 | 8.0 | 0.00 | 0.05 | 0.00 | 62 | 1014.5 |
| 20260906160553 | 31 | 0 | 3.2 | 12.9 | 0.00 | 0.05 | 0.00 | 62 | 1014.5 |
| 20260906160100 | 31 | 0 | 3.2 | 12.9 | 0.00 | 0.05 | 0.00 | 62 | 1014.5 |
| 20260906155553 | 31 | 309 | 1.6 | 12.9 | 0.00 | 0.05 | 0.00 | 62 | 1014.5 |
| 20260906155056 | 30 | 344 | 3.2 | 12.9 | 0.00 | 0.05 | 0.00 | 62 | 1014.6 |
| 20260906154601 | 30 | 61 | 1.6 | 12.9 | 0.00 | 0.05 | 0.00 | 64 | 1014.6 |
| 20260906154053 | 30 | 24 | 3.2 | 12.9 | 0.00 | 0.05 | 0.00 | 64 | 1014.6 |
| 20260906153555 | 30 | 64 | 4.8 | 12.9 | 0.00 | 0.05 | 0.00 | 64 | 1014.6 |
| 20260906153118 | 30 | 0 | 1.6 | 9.7 | 0.00 | 0.05 | 0.00 | 65 | 1014.6 |
| 20260906152555 | 30 | 0 | 0.0 | 9.7 | 0.00 | 0.05 | 0.00 | 65 | 1014.5 |
| 20260906152053 | 30 | 304 | 1.6 | 8.0 | 0.00 | 0.05 | 0.00 | 65 | 1014.5 |
| 20260906151609 | 30 | 0 | 1.6 | 8.0 | 0.00 | 0.05 | 0.00 | 65 | 1014.6 |
| 20260906151056 | 29 | 0 | 0.0 | 6.4 | 0.00 | 0.05 | 0.00 | 65 | 1014.6 |
| 20260906150552 | 29 | 346 | 0.0 | 6.4 | 0.00 | 0.05 | 0.00 | 66 | 1014.5 |
| 20260906150106 | 29 | 40 | 3.2 | 6.4 | 0.00 | 0.05 | 0.00 | 68 | 1014.6 |
| 20260906145555 | 28 | 19 | 0.0 | 6.4 | 0.00 | 0.05 | 0.00 | 70 | 1014.6 |
| 20260906145054 | 28 | 333 | 3.2 | 8.0 | 0.00 | 0.05 | 0.00 | 70 | 1014.6 |
| 20260906144602 | 28 | 360 | 0.0 | 8.0 | 0.00 | 0.05 | 0.00 | 73 | 1014.7 |
| 20260906144055 | 28 | 332 | 3.2 | 8.0 | 0.00 | 0.05 | 0.00 | 73 | 1014.5 |
| 20260906143554 | 27 | 24 | 1.6 | 8.0 | 0.00 | 0.05 | 0.00 | 74 | 1014.7 |
| 20260906143103 | 27 | 12 | 1.6 | 4.8 | 0.00 | 0.05 | 0.00 | 75 | 1014.6 |
| 20260906142552 | 27 | 61 | 1.6 | 4.8 | 0.00 | 0.05 | 0.00 | 76 | 1014.7 |
| 20260906142054 | 27 | 0 | 0.0 | 0.0 | 0.00 | 0.05 | 0.00 | 78 | 1014.6 |
| 20260906141601 | 27 | 0 | 0.0 | 0.0 | 0.00 | 0.05 | 0.00 | 77 | 1014.6 |
| 20260906141052 | 26 | 0 | 0.0 | 0.0 | 0.00 | 0.05 | 0.00 | 79 | 1014.6 |
| 20260906140553 | 26 | 0 | 0.0 | 0.0 | 0.00 | 0.05 | 0.00 | 79 | 1014.6 |
| 20260906140107 | 26 | 0 | 0.0 | 0.0 | 0.00 | 0.05 | 0.00 | 79 | 1014.7 |
| 20260906135554 | 26 | 0 | 0.0 | 0.0 | 0.00 | 0.05 | 0.00 | 81 | 1014.7 |
| 20260906135054 | 26 | 0 | 0.0 | 0.0 | 0.00 | 0.05 | 0.00 | 81 | 1014.8 |
| 20260906134557 | 26 | 0 | 0.0 | 0.0 | 0.00 | 0.05 | 0.00 | 82 | 1014.7 |
| 20260906134053 | 25 | 0 | 0.0 | 0.0 | 0.00 | 0.05 | 0.00 | 84 | 1014.8 |
| 20260906133552 | 25 | 0 | 0.0 | 0.0 | 0.00 | 0.05 | 0.00 | 84 | 1015.0 |
| 20260906133132 | 25 | 0 | 0.0 | 0.0 | 0.00 | 0.05 | 0.00 | 85 | 1014.9 |
| 20260906132554 | 25 | 0 | 0.0 | 0.0 | 0.00 | 0.05 | 0.00 | 86 | 1014.9 |
| 20260906132054 | 24 | 0 | 0.0 | 0.0 | 0.00 | 0.05 | 0.00 | 87 | 1015.0 |
| 20260906131616 | 23 | 0 | 0.0 | 0.0 | 0.00 | 0.05 | 0.00 | 88 | 1015.1 |
| 20260906131053 | 23 | 0 | 0.0 | 0.0 | 0.00 | 0.05 | 0.00 | 89 | 1015.0 |
| 20260906130557 | 23 | 0 | 0.0 | 0.0 | 0.00 | 0.05 | 0.00 | 89 | 1015.0 |
| 20260906130113 | 23 | 0 | 0.0 | 0.0 | 0.00 | 0.05 | 0.00 | 90 | 1015.1 |
| 20260906125557 | 23 | 0 | 0.0 | 0.0 | 0.00 | 0.05 | 0.00 | 90 | 1014.9 |
| 20260906125054 | 23 | 0 | 0.0 | 0.0 | 0.00 | 0.05 | 0.00 | 90 | 1015.0 |
| 20260906124559 | 23 | 0 | 0.0 | 0.0 | 0.00 | 0.05 | 0.00 | 90 | 1014.9 |
| 20260906124052 | 23 | 0 | 0.0 | 0.0 | 0.00 | 0.05 | 0.00 | 90 | 1014.9 |
| 20260906123553 | 23 | 0 | 0.0 | 0.0 | 0.00 | 0.05 | 0.00 | 90 | 1014.9 |
| 20260906123105 | 23 | 0 | 0.0 | 0.0 | 0.00 | 0.05 | 0.00 | 89 | 1014.8 |
| 20260906122556 | 23 | 0 | 0.0 | 0.0 | 0.00 | 0.05 | 0.00 | 90 | 1014.9 |
| 20260906122053 | 23 | 0 | 0.0 | 0.0 | 0.00 | 0.05 | 0.00 | 90 | 1014.7 |
| 20260906121603 | 23 | 0 | 0.0 | 0.0 | 0.00 | 0.05 | 0.00 | 90 | 1014.9 |
| 20260906121052 | 23 | 0 | 0.0 | 0.0 | 0.00 | 0.05 | 0.00 | 90 | 1014.7 |
| 20260906120552 | 23 | 0 | 0.0 | 0.0 | 0.00 | 0.05 | 0.00 | 90 | 1014.6 |
| 20260906120104 | 23 | 0 | 0.0 | 0.0 | 0.00 | 0.05 | 0.00 | 90 | 1014.6 |
| 20260906115552 | 23 | 0 | 0.0 | 0.0 | 0.00 | 0.05 | 0.00 | 90 | 1014.5 |
| 20260906115053 | 23 | 0 | 0.0 | 0.0 | 0.00 | 0.05 | 0.00 | 90 | 1014.2 |
| 20260906114604 | 23 | 0 | 0.0 | 0.0 | 0.00 | 0.05 | 0.00 | 90 | 1014.3 |
| 20260906114052 | 23 | 0 | 0.0 | 0.0 | 0.00 | 0.05 | 0.00 | 90 | 1014.3 |
| 20260906113554 | 23 | 0 | 0.0 | 0.0 | 0.00 | 0.05 | 0.00 | 89 | 1014.3 |
| 20260906113058 | 23 | 0 | 0.0 | 0.0 | 0.00 | 0.05 | 0.00 | 90 | 1014.3 |
| 20260906112554 | 23 | 0 | 0.0 | 0.0 | 0.00 | 0.05 | 0.00 | 89 | 1014.2 |
| 20260906112052 | 23 | 0 | 0.0 | 0.0 | 0.00 | 0.05 | 0.00 | 89 | 1014.1 |
| 20260906111600 | 23 | 0 | 0.0 | 0.0 | 0.00 | 0.05 | 0.00 | 89 | 1014.0 |
| 20260906111052 | 23 | 0 | 0.0 | 0.0 | 0.00 | 0.05 | 0.00 | 88 | 1013.9 |
| 20260906110554 | 23 | 0 | 0.0 | 0.0 | 0.00 | 0.05 | 0.00 | 88 | 1013.8 |
| 20260906110058 | 23 | 0 | 0.0 | 0.0 | 0.00 | 0.05 | 0.00 | 88 | 1013.6 |
| 20260906105549 | 23 | 0 | 0.0 | 0.0 | 0.00 | 0.05 | 0.00 | 88 | 1013.7 |
| 20260906105053 | 23 | 0 | 0.0 | 0.0 | 0.00 | 0.05 | 0.00 | 88 | 1013.7 |
| 20260906104559 | 23 | 0 | 0.0 | 0.0 | 0.00 | 0.05 | 0.00 | 89 | 1013.7 |
| 20260906104052 | 23 | 0 | 0.0 | 0.0 | 0.00 | 0.05 | 0.00 | 89 | 1013.7 |
| 20260906103552 | 23 | 0 | 0.0 | 0.0 | 0.00 | 0.05 | 0.00 | 88 | 1013.8 |
| 20260906103100 | 23 | 0 | 0.0 | 0.0 | 0.00 | 0.05 | 0.00 | 88 | 1013.7 |
| 20260906102553 | 23 | 0 | 0.0 | 0.0 | 0.00 | 0.05 | 0.00 | 88 | 1013.7 |
| 20260906102052 | 23 | 0 | 0.0 | 0.0 | 0.00 | 0.05 | 0.00 | 89 | 1013.7 |
| 20260906101559 | 23 | 0 | 0.0 | 0.0 | 0.00 | 0.05 | 0.00 | 89 | 1013.6 |
| 20260906101052 | 23 | 0 | 0.0 | 0.0 | 0.00 | 0.05 | 0.00 | 89 | 1013.7 |
| 20260906100552 | 23 | 0 | 0.0 | 0.0 | 0.00 | 0.05 | 0.00 | 89 | 1013.7 |
| 20260906100111 | 23 | 0 | 0.0 | 0.0 | 0.00 | 0.05 | 0.00 | 88 | 1013.8 |
| 20260906095556 | 23 | 0 | 0.0 | 0.0 | 0.00 | 0.05 | 0.00 | 88 | 1013.7 |
| 20260906095053 | 23 | 0 | 0.0 | 0.0 | 0.00 | 0.05 | 0.00 | 88 | 1013.7 |
| 20260906094616 | 23 | 0 | 0.0 | 0.0 | 0.00 | 0.05 | 0.00 | 88 | 1013.6 |
| 20260906094052 | 23 | 0 | 0.0 | 0.0 | 0.00 | 0.05 | 0.00 | 89 | 1013.7 |
| 20260906093555 | 23 | 0 | 0.0 | 0.0 | 0.00 | 0.05 | 0.00 | 89 | 1013.8 |
| 20260906093100 | 23 | 0 | 0.0 | 0.0 | 0.00 | 0.05 | 0.00 | 89 | 1013.9 |
| 20260906092554 | 23 | 0 | 0.0 | 0.0 | 0.00 | 0.05 | 0.00 | 88 | 1014.1 |
| 20260906092052 | 23 | 0 | 0.0 | 0.0 | 0.00 | 0.05 | 0.00 | 88 | 1014.1 |
| 20260906091601 | 23 | 0 | 0.0 | 3.2 | 0.00 | 0.05 | 0.00 | 89 | 1014.1 |
| 20260906091054 | 23 | 0 | 0.0 | 3.2 | 0.00 | 0.05 | 0.00 | 88 | 1014.1 |
| 20260906090552 | 23 | 352 | 0.0 | 3.2 | 0.00 | 0.05 | 0.00 | 88 | 1014.2 |
| 20260906090115 | 23 | 0 | 0.0 | 3.2 | 0.00 | 0.05 | 0.00 | 88 | 1014.2 |
| 20260906085554 | 23 | 0 | 0.0 | 3.2 | 0.00 | 0.05 | 0.00 | 88 | 1014.2 |
| 20260906085055 | 23 | 352 | 0.0 | 3.2 | 0.00 | 0.05 | 0.00 | 88 | 1014.3 |
| 20260906084602 | 23 | 0 | 0.0 | 1.6 | 0.00 | 0.05 | 0.00 | 88 | 1014.3 |
| 20260906084053 | 23 | 0 | 0.0 | 3.2 | 0.00 | 0.05 | 0.00 | 88 | 1014.3 |
| 20260906083553 | 23 | 0 | 0.0 | 4.8 | 0.00 | 0.05 | 0.00 | 88 | 1014.5 |
| 20260906083103 | 23 | 0 | 0.0 | 4.8 | 0.00 | 0.05 | 0.00 | 88 | 1014.6 |
| 20260906082552 | 23 | 0 | 0.0 | 4.8 | 0.00 | 0.05 | 0.00 | 88 | 1014.3 |
| 20260906082053 | 23 | 5 | 0.0 | 4.8 | 0.00 | 0.05 | 0.00 | 88 | 1014.4 |
| 20260906081601 | 23 | 5 | 0.0 | 4.8 | 0.00 | 0.05 | 0.00 | 88 | 1014.3 |
| 20260906081052 | 23 | 0 | 0.0 | 3.2 | 0.00 | 0.05 | 0.00 | 88 | 1014.2 |
| 20260906080552 | 23 | 0 | 0.0 | 3.2 | 0.00 | 0.05 | 0.00 | 89 | 1014.1 |
| 20260906080105 | 23 | 0 | 0.0 | 3.2 | 0.00 | 0.05 | 0.00 | 89 | 1014.0 |
| 20260906075552 | 23 | 0 | 0.0 | 3.2 | 0.00 | 0.05 | 0.00 | 89 | 1014.0 |
| 20260906075053 | 23 | 0 | 0.0 | 3.2 | 0.00 | 0.05 | 0.00 | 89 | 1013.8 |
| 20260906074610 | 23 | 0 | 0.0 | 3.2 | 0.00 | 0.05 | 0.00 | 89 | 1013.8 |
| 20260906074052 | 23 | 5 | 0.0 | 1.6 | 0.00 | 0.05 | 0.00 | 89 | 1013.8 |
| 20260906073552 | 23 | 0 | 0.0 | 1.6 | 0.00 | 0.05 | 0.00 | 89 | 1013.8 |
| 20260906073104 | 23 | 0 | 0.0 | 3.2 | 0.00 | 0.05 | 0.00 | 89 | 1013.8 |
| 20260906072552 | 23 | 0 | 0.0 | 3.2 | 0.00 | 0.05 | 0.00 | 89 | 1013.6 |
| 20260906072052 | 23 | 0 | 0.0 | 6.4 | 0.00 | 0.05 | 0.00 | 89 | 1013.7 |
| 20260906071602 | 23 | 0 | 0.0 | 6.4 | 0.00 | 0.05 | 0.00 | 89 | 1013.7 |
| 20260906071049 | 23 | 0 | 0.0 | 6.4 | 0.00 | 0.05 | 0.00 | 90 | 1014.0 |
| 20260906070549 | 23 | 0 | 0.0 | 3.2 | 0.00 | 0.05 | 0.00 | 90 | 1014.1 |
| 20260906070107 | 23 | 0 | 0.0 | 3.2 | 0.00 | 0.05 | 0.00 | 89 | 1013.9 |
| 20260906065555 | 23 | 0 | 0.0 | 3.2 | 0.00 | 0.05 | 0.00 | 89 | 1013.8 |
| 20260906065053 | 23 | 0 | 0.0 | 3.2 | 0.00 | 0.05 | 0.00 | 89 | 1013.9 |
| 20260906064602 | 23 | 0 | 0.0 | 3.2 | 0.00 | 0.05 | 0.00 | 89 | 1014.0 |
| 20260906064052 | 23 | 352 | 0.0 | 1.6 | 0.00 | 0.05 | 0.00 | 89 | 1014.1 |
| 20260906063551 | 23 | 0 | 0.0 | 0.0 | 0.00 | 0.05 | 0.00 | 89 | 1014.2 |
| 20260906063103 | 23 | 0 | 0.0 | 0.0 | 0.00 | 0.05 | 0.00 | 89 | 1014.3 |
| 20260906062551 | 23 | 0 | 0.0 | 3.2 | 0.00 | 0.05 | 0.00 | 89 | 1014.3 |
| 20260906062048 | 23 | 0 | 0.0 | 3.2 | 0.00 | 0.05 | 0.00 | 89 | 1014.2 |
| 20260906061602 | 23 | 0 | 0.0 | 3.2 | 0.00 | 0.05 | 0.00 | 88 | 1014.1 |
| 20260906061056 | 23 | 352 | 0.0 | 3.2 | 0.00 | 0.05 | 0.00 | 89 | 1014.2 |
| 20260906060552 | 23 | 0 | 0.0 | 1.6 | 0.00 | 0.05 | 0.00 | 89 | 1014.2 |
| 20260906060108 | 23 | 0 | 0.0 | 1.6 | 0.00 | 0.05 | 0.00 | 88 | 1014.2 |
| 20260906055552 | 23 | 0 | 0.0 | 1.6 | 0.00 | 0.05 | 0.00 | 89 | 1014.2 |
| 20260906055052 | 23 | 0 | 0.0 | 0.0 | 0.00 | 0.05 | 0.00 | 89 | 1014.1 |
| 20260906054605 | 23 | 0 | 0.0 | 0.0 | 0.00 | 0.05 | 0.00 | 88 | 1014.1 |
| 20260906054049 | 23 | 0 | 0.0 | 3.2 | 0.00 | 0.05 | 0.00 | 88 | 1014.0 |
| 20260906053553 | 23 | 0 | 0.0 | 3.2 | 0.00 | 0.05 | 0.00 | 88 | 1014.1 |
| 20260906053102 | 23 | 352 | 0.0 | 3.2 | 0.00 | 0.05 | 0.00 | 88 | 1014.0 |
| 20260906052555 | 23 | 0 | 0.0 | 1.6 | 0.00 | 0.05 | 0.00 | 88 | 1014.1 |
| 20260906052056 | 23 | 0 | 0.0 | 0.0 | 0.00 | 0.05 | 0.00 | 88 | 1014.1 |
| 20260906051602 | 23 | 0 | 0.0 | 0.0 | 0.00 | 0.05 | 0.00 | 88 | 1014.0 |
| 20260906051052 | 23 | 0 | 0.0 | 0.0 | 0.00 | 0.05 | 0.00 | 88 | 1014.1 |
| 20260906050549 | 23 | 0 | 0.0 | 0.0 | 0.00 | 0.05 | 0.00 | 87 | 1014.1 |
| 20260906050107 | 23 | 0 | 0.0 | 0.0 | 0.00 | 0.05 | 0.00 | 87 | 1014.2 |
| 20260906045548 | 23 | 0 | 0.0 | 0.0 | 0.00 | 0.05 | 0.00 | 87 | 1014.3 |
| 20260906045049 | 23 | 0 | 0.0 | 0.0 | 0.00 | 0.05 | 0.00 | 86 | 1014.4 |
| 20260906044600 | 23 | 0 | 0.0 | 0.0 | 0.00 | 0.05 | 0.00 | 86 | 1014.5 |
| 20260906044051 | 23 | 0 | 0.0 | 1.6 | 0.00 | 0.05 | 0.00 | 86 | 1014.6 |
| 20260906043552 | 23 | 0 | 0.0 | 1.6 | 0.00 | 0.05 | 0.00 | 86 | 1014.5 |
| 20260906043101 | 23 | 0 | 0.0 | 1.6 | 0.00 | 0.05 | 0.00 | 86 | 1014.5 |
| 20260906042553 | 23 | 352 | 0.0 | 1.6 | 0.00 | 0.05 | 0.00 | 86 | 1014.5 |
| 20260906042052 | 23 | 0 | 0.0 | 0.0 | 0.00 | 0.05 | 0.00 | 86 | 1014.5 |
| 20260906041604 | 23 | 0 | 0.0 | 0.0 | 0.00 | 0.05 | 0.00 | 85 | 1014.6 |
| 20260906041052 | 23 | 0 | 0.0 | 0.0 | 0.00 | 0.05 | 0.00 | 85 | 1014.5 |
| 20260906040552 | 23 | 0 | 0.0 | 0.0 | 0.00 | 0.05 | 0.00 | 85 | 1014.6 |
| 20260906035552 | 24 | 0 | 0.0 | 0.0 | 0.00 | 0.05 | 0.05 | 85 | 1014.6 |
| 20260906035049 | 24 | 0 | 0.0 | 1.6 | 0.00 | 0.05 | 0.05 | 85 | 1014.8 |
| 20260906034602 | 24 | 0 | 0.0 | 1.6 | 0.00 | 0.05 | 0.05 | 85 | 1014.5 |
| 20260906034053 | 24 | 0 | 0.0 | 1.6 | 0.00 | 0.05 | 0.05 | 84 | 1014.6 |
| 20260906033556 | 24 | 352 | 0.0 | 1.6 | 0.00 | 0.05 | 0.05 | 84 | 1014.7 |
| 20260906033102 | 24 | 0 | 0.0 | 1.6 | 0.00 | 0.05 | 0.05 | 84 | 1014.6 |
| 20260906032552 | 24 | 0 | 0.0 | 3.2 | 0.00 | 0.05 | 0.05 | 83 | 1014.7 |
| 20260906032052 | 24 | 0 | 0.0 | 3.2 | 0.00 | 0.05 | 0.05 | 83 | 1014.7 |
| 20260906031603 | 24 | 0 | 0.0 | 3.2 | 0.00 | 0.05 | 0.05 | 83 | 1014.5 |
| 20260906031052 | 24 | 0 | 0.0 | 1.6 | 0.00 | 0.05 | 0.05 | 83 | 1014.7 |
| 20260906030552 | 24 | 0 | 0.0 | 1.6 | 0.00 | 0.05 | 0.05 | 83 | 1014.6 |
| 20260906025552 | 25 | 0 | 0.0 | 0.0 | 0.00 | 0.05 | 0.05 | 83 | 1014.6 |
| 20260906025052 | 25 | 0 | 0.0 | 0.0 | 0.00 | 0.05 | 0.05 | 83 | 1014.6 |
| 20260906024607 | 25 | 0 | 0.0 | 0.0 | 0.00 | 0.05 | 0.05 | 83 | 1014.5 |
| 20260906024051 | 25 | 0 | 0.0 | 0.0 | 0.00 | 0.05 | 0.05 | 82 | 1014.2 |
| 20260906023549 | 25 | 0 | 0.0 | 0.0 | 0.00 | 0.05 | 0.05 | 82 | 1014.2 |
| 20260906023103 | 25 | 0 | 0.0 | 0.0 | 0.00 | 0.05 | 0.05 | 81 | 1014.1 |
| 20260906022555 | 25 | 0 | 0.0 | 0.0 | 0.00 | 0.05 | 0.05 | 81 | 1014.0 |
| 20260906022055 | 25 | 0 | 0.0 | 0.0 | 0.00 | 0.05 | 0.05 | 81 | 1014.0 |
| 20260906021607 | 25 | 0 | 0.0 | 0.0 | 0.00 | 0.05 | 0.05 | 80 | 1014.2 |
| 20260906021055 | 25 | 0 | 0.0 | 0.0 | 0.00 | 0.05 | 0.05 | 80 | 1014.1 |
| 20260906020552 | 25 | 0 | 0.0 | 0.0 | 0.00 | 0.05 | 0.05 | 80 | 1014.1 |
| 20260906020104 | 25 | 0 | 0.0 | 0.0 | 0.00 | 0.05 | 0.05 | 79 | 1014.1 |
| 20260906015551 | 25 | 0 | 0.0 | 0.0 | 0.00 | 0.05 | 0.05 | 80 | 1014.0 |
| 20260906015049 | 26 | 0 | 0.0 | 0.0 | 0.00 | 0.05 | 0.05 | 79 | 1013.9 |
| 20260906014611 | 26 | 0 | 0.0 | 0.0 | 0.00 | 0.05 | 0.05 | 79 | 1013.7 |
| 20260906014051 | 26 | 0 | 0.0 | 3.2 | 0.00 | 0.05 | 0.05 | 79 | 1013.8 |
| 20260906013554 | 26 | 0 | 0.0 | 3.2 | 0.00 | 0.05 | 0.05 | 78 | 1013.6 |
| 20260906013106 | 26 | 0 | 0.0 | 3.2 | 0.00 | 0.05 | 0.05 | 77 | 1013.5 |
| 20260906012550 | 26 | 352 | 0.0 | 4.8 | 0.00 | 0.05 | 0.05 | 77 | 1013.5 |
| 20260906012049 | 26 | 352 | 0.0 | 4.8 | 0.00 | 0.05 | 0.05 | 77 | 1013.4 |
| 20260906011619 | 26 | 352 | 3.2 | 4.8 | 0.00 | 0.05 | 0.05 | 76 | 1013.5 |
| 20260906011048 | 26 | 323 | 1.6 | 4.8 | 0.00 | 0.05 | 0.05 | 77 | 1013.5 |
| 20260906010548 | 26 | 0 | 0.0 | 1.6 | 0.00 | 0.05 | 0.05 | 76 | 1013.6 |
| 20260906010105 | 26 | 0 | 0.0 | 1.6 | 0.00 | 0.05 | 0.05 | 75 | 1013.4 |
| 20260906005548 | 26 | 0 | 0.0 | 1.6 | 0.00 | 0.05 | 0.05 | 75 | 1013.4 |
| 20260906005052 | 26 | 0 | 0.0 | 1.6 | 0.00 | 0.05 | 0.05 | 75 | 1013.4 |
| 20260906004605 | 27 | 0 | 0.0 | 0.0 | 0.00 | 0.05 | 0.05 | 75 | 1013.4 |
| 20260906004052 | 27 | 0 | 0.0 | 0.0 | 0.00 | 0.05 | 0.05 | 74 | 1013.3 |
| 20260906003549 | 27 | 0 | 0.0 | 0.0 | 0.00 | 0.05 | 0.05 | 74 | 1013.3 |
| 20260906003111 | 27 | 0 | 0.0 | 0.0 | 0.00 | 0.05 | 0.05 | 74 | 1013.2 |
| 20260906002552 | 27 | 0 | 0.0 | 0.0 | 0.00 | 0.05 | 0.05 | 73 | 1013.1 |
| 20260906002055 | 27 | 0 | 0.0 | 1.6 | 0.00 | 0.05 | 0.05 | 73 | 1013.1 |
| 20260906001604 | 27 | 0 | 0.0 | 4.8 | 0.00 | 0.05 | 0.05 | 71 | 1013.0 |
| 20260906001054 | 28 | 0 | 1.6 | 4.8 | 0.00 | 0.05 | 0.05 | 71 | 1013.1 |
| 20260906000551 | 28 | 68 | 1.6 | 4.8 | 0.00 | 0.05 | 0.05 | 71 | 1013.1 |
| 20260905235552 | 28 | 5 | 0.0 | 1.6 | 0.00 | 0.05 | 0.05 | 69 | 1013.5 |
| 20260905235057 | 28 | 0 | 0.0 | 1.6 | 0.00 | 0.05 | 0.05 | 69 | 1013.4 |
| 20260905234603 | 28 | 0 | 0.0 | 3.2 | 0.00 | 0.05 | 0.05 | 68 | 1013.2 |
| 20260905234054 | 28 | 0 | 0.0 | 3.2 | 0.00 | 0.05 | 0.05 | 68 | 1013.5 |
| 20260905233554 | 28 | 0 | 0.0 | 3.2 | 0.00 | 0.05 | 0.05 | 67 | 1013.6 |
| 20260905233121 | 28 | 0 | 0.0 | 3.2 | 0.00 | 0.05 | 0.05 | 68 | 1013.5 |
| 20260905232553 | 28 | 0 | 0.0 | 1.6 | 0.00 | 0.05 | 0.05 | 68 | 1013.6 |
| 20260905232053 | 28 | 0 | 0.0 | 1.6 | 0.00 | 0.05 | 0.05 | 68 | 1013.4 |
| 20260905231602 | 29 | 0 | 0.0 | 1.6 | 0.00 | 0.05 | 0.05 | 67 | 1013.1 |
| 20260905231054 | 29 | 0 | 0.0 | 3.2 | 0.00 | 0.05 | 0.05 | 67 | 1012.9 |
| 20260905230556 | 29 | 0 | 0.0 | 12.9 | 0.00 | 0.05 | 0.05 | 65 | 1012.9 |
| 20260905230103 | 29 | 0 | 3.2 | 12.9 | 0.00 | 0.05 | 0.05 | 64 | 1012.9 |
| 20260905225553 | 29 | 113 | 4.8 | 12.9 | 0.00 | 0.05 | 0.05 | 64 | 1012.8 |
| 20260905225054 | 29 | 102 | 6.4 | 12.9 | 0.00 | 0.05 | 0.05 | 64 | 1012.7 |
| 20260905224625 | 30 | 104 | 4.8 | 12.9 | 0.00 | 0.05 | 0.05 | 63 | 1013.0 |
| 20260905224053 | 30 | 78 | 3.2 | 11.3 | 0.00 | 0.05 | 0.05 | 63 | 1013.0 |
| 20260905223553 | 30 | 77 | 1.6 | 11.3 | 0.00 | 0.05 | 0.05 | 63 | 1013.0 |
| 20260905223107 | 30 | 70 | 1.6 | 9.7 | 0.00 | 0.05 | 0.05 | 63 | 1013.1 |
| 20260905222553 | 30 | 71 | 3.2 | 11.3 | 0.00 | 0.05 | 0.05 | 63 | 1013.1 |
| 20260905222053 | 30 | 82 | 3.2 | 14.5 | 0.00 | 0.05 | 0.05 | 63 | 1013.3 |
| 20260905221559 | 30 | 53 | 4.8 | 14.5 | 0.00 | 0.05 | 0.05 | 62 | 1013.2 |
| 20260905221054 | 30 | 64 | 4.8 | 11.3 | 0.00 | 0.05 | 0.05 | 63 | 1013.3 |
| 20260905220553 | 30 | 360 | 1.6 | 9.7 | 0.00 | 0.05 | 0.05 | 64 | 1013.5 |
| 20260905220107 | 30 | 85 | 1.6 | 12.9 | 0.00 | 0.05 | 0.05 | 64 | 1013.6 |
| 20260905215554 | 30 | 63 | 4.8 | 16.1 | 0.00 | 0.05 | 0.05 | 64 | 1013.6 |
| 20260905215053 | 30 | 360 | 4.8 | 16.1 | 0.00 | 0.05 | 0.05 | 64 | 1013.7 |
| 20260905214606 | 30 | 90 | 4.8 | 11.3 | 0.00 | 0.05 | 0.05 | 65 | 1013.8 |
| 20260905214054 | 30 | 69 | 1.6 | 9.7 | 0.00 | 0.05 | 0.05 | 66 | 1013.8 |
| 20260905213554 | 30 | 0 | 3.2 | 16.1 | 0.00 | 0.05 | 0.05 | 65 | 1013.7 |
| 20260905213102 | 30 | 51 | 3.2 | 16.1 | 0.00 | 0.05 | 0.05 | 65 | 1013.6 |
| 20260905212554 | 30 | 41 | 6.4 | 17.7 | 0.00 | 0.05 | 0.05 | 64 | 1013.7 |
| 20260905212053 | 30 | 9 | 6.4 | 17.7 | 0.00 | 0.05 | 0.05 | 65 | 1013.6 |
| 20260905211609 | 30 | 59 | 4.8 | 17.7 | 0.00 | 0.05 | 0.05 | 66 | 1013.7 |
| 20260905211052 | 30 | 331 | 8.0 | 20.9 | 0.00 | 0.05 | 0.05 | 66 | 1013.7 |
| 20260905210553 | 30 | 34 | 6.4 | 22.5 | 0.00 | 0.05 | 0.05 | 66 | 1013.8 |
| 20260905205554 | 30 | 100 | 12.9 | 24.1 | 0.00 | 0.05 | 0.05 | 67 | 1013.5 |
| 20260905205053 | 30 | 94 | 12.9 | 24.1 | 0.00 | 0.05 | 0.05 | 67 | 1013.7 |
| 20260905204602 | 30 | 91 | 14.5 | 24.1 | 0.00 | 0.05 | 0.05 | 67 | 1013.7 |
| 20260905204056 | 30 | 322 | 8.0 | 24.1 | 0.00 | 0.05 | 0.05 | 67 | 1013.8 |
| 20260905203554 | 30 | 63 | 11.3 | 22.5 | 0.00 | 0.05 | 0.05 | 67 | 1014.0 |